This is the latest recevied weather packets stored in our database for station/object WX5KDM. If no packets are shown the sender has not sent any weather packets the latest 1 day(s).
| Time | Temp. | Humidity | Pressure | Rain* | Wind** | Luminosity | Snow |
|---|---|---|---|---|---|---|---|
| 1778021073 | 22.78° C | 71% | 1009.8 hPa | 0 mm | 1.34 m/s, 195° | - | - |
| 1778020770 | 22.78° C | 71% | 1009.8 hPa | 0 mm | 2.24 m/s, 260° | - | - |
| 1778020467 | 22.78° C | 71% | 1009.8 hPa | 0 mm | 2.24 m/s, 202° | - | - |
| 1778020163 | 23.33° C | 71% | 1009.9 hPa | 0 mm | 1.79 m/s, 205° | - | - |
| 1778019860 | 23.33° C | 70% | 1009.9 hPa | 0 mm | 1.79 m/s, 138° | - | - |
| 1778019556 | 23.33° C | 70% | 1009.8 hPa | 0 mm | 0.89 m/s, 189° | - | - |
| 1778019253 | 22.78° C | 70% | 1010.1 hPa | 0 mm | 1.79 m/s, 265° | - | - |
| 1778018950 | 23.33° C | 71% | 1010.2 hPa | 0 mm | 1.34 m/s, 150° | - | - |
| 1778018647 | 23.33° C | 70% | 1010.2 hPa | 0 mm | 1.79 m/s, 243° | - | - |
| 1778018345 | 23.33° C | 70% | 1010.1 hPa | 0 mm | 1.34 m/s, 239° | - | - |
| 1778018043 | 23.33° C | 69% | 1010.4 hPa | 0 mm | 2.24 m/s, 153° | - | - |
| 1778017740 | 23.33° C | 68% | 1010.3 hPa | 0 mm | 2.24 m/s, 227° | - | - |
| 1778017438 | 23.33° C | 68% | 1010.4 hPa | 0 mm | 1.79 m/s, 269° | - | - |
| 1778017135 | 23.89° C | 68% | 1010.3 hPa | 0 mm | 3.13 m/s, 296° | - | - |
| 1778016833 | 23.33° C | 69% | 1010.3 hPa | 0 mm | 0.89 m/s, 230° | - | - |
| 1778016528 | 23.33° C | 69% | 1010.4 hPa | 0 mm | 2.24 m/s, 219° | - | - |
| 1778016226 | 22.78° C | 69% | 1010.4 hPa | 0 mm | 2.24 m/s, 208° | - | - |
| 1778015921 | 23.33° C | 68% | 1010.5 hPa | 0 mm | 3.13 m/s, 227° | - | - |
| 1778015619 | 22.78° C | 69% | 1010.5 hPa | 0 mm | 2.68 m/s, 225° | - | - |
| 1778015316 | 22.78° C | 69% | 1010.4 hPa | 0 mm | 2.24 m/s, 138° | - | - |
| 1778015013 | 22.78° C | 69% | 1010.5 hPa | 0 mm | 1.34 m/s, 182° | - | - |
| 1778014709 | 22.78° C | 69% | 1010.5 hPa | 0 mm | 2.24 m/s, 184° | - | - |
| 1778014408 | 22.78° C | 68% | 1010.5 hPa | 0 mm | 2.24 m/s, 167° | - | - |
| 1778014104 | 22.78° C | 68% | 1010.6 hPa | 0 mm | 2.24 m/s, 203° | - | - |
| 1778013802 | 22.78° C | 69% | 1010.5 hPa | 0 mm | 0.89 m/s, 194° | - | - |
* Rain latest hour (hover to see other rain measurements)
** Current wind speed in m/s (hover to see current wind gust speed)